Regional Weather Roundup
Issued by NWS

Home | Current Version | Previous Version | Graphics & Text | Print | Product List | Glossary On
Versions: 1 2 3 4 5 6 7 8 9 10 11 12 13 14 15 16 17 18 19 20 21 22 23 24 25 26 27 28 29 30 31 32 33 34 35 36 37 38 39 40 41 42 43 44 45 46 47 48 49 50
625
ASUS43 KTOP 081459
RWRKS

WEATHER ROUNDUP FOR KANSAS
NATIONAL WEATHER SERVICE GOODLAND KS
900 AM CST THU DEC 08 2016

NOTE:  "FAIR" INDICATES FEW OR NO CLOUDS BELOW 12,000 FEET WITH NO
SIGNIFICANT WEATHER AND/OR OBSTRUCTIONS TO VISIBILITY.

KSZ001>006-013>018-027>032-041>047-081600-
NORTHWEST KANSAS

CITY           SKY/WX    TMP DP  RH WIND       PRES   REMARKS
GOODLAND       CLOUDY     0  -8  69 NW9       30.56R
HAYS           SUNNY     10   2  69 NW8       30.69R
HILL CITY      SUNNY      6  -2  69 NW10      30.68R WCI  -9
RUSSELL        SUNNY     10   2  69 NW16      30.67R WCI  -7
$$

KSZ061>065-074>080-084>089-081600-
SOUTHWEST KANSAS

CITY           SKY/WX    TMP DP  RH WIND       PRES   REMARKS
DODGE CITY     SUNNY      8   1  73 N16       30.63R WCI -10
ELKHART          N/A     11  -1  58 N5          N/A
GARDEN CITY    CLOUDY     7  -1  70 N16       30.61R WCI -11
GREAT BEND     SUNNY     12   3  67 NW14      30.68R WCI  -3
LIBERAL        SUNNY     10   1  67 NW6       30.63R
$$

KSZ066>073-081>083-090>101-081600-
SOUTHEAST KANSAS

CITY           SKY/WX    TMP DP  RH WIND       PRES   REMARKS
CHANUTE        SUNNY     18   9  68 NW10      30.66R WCI   6
COFFEYVILLE    SUNNY     20  10  65 N14       30.69R WCI   7
HUTCHINSON     SUNNY     15   4  61 NW15      30.67R WCI   0
MEDICINE LODGE   N/A     15   6  67 N15       30.68R WCI   0
NEWTON         SUNNY     15   5  64 NW18      30.66R WCI  -2
PARSONS        SUNNY     19  10  68 N14       30.68R WCI   6
WICHITA INTL   MOSUNNY   18   5  57 N18       30.68R WCI   2
WICHITA JABRA  SUNNY     16   6  65 NW16      30.67R WCI   1
WINFIELD       SUNNY     19   9  65 NW13      30.69R WCI   6
$$

KSZ007>012-019>026-033>040-048>060-102>105-081600-
NORTHEAST KANSAS

CITY           SKY/WX    TMP DP  RH WIND       PRES   REMARKS
CONCORDIA      SUNNY     11   4  73 W13       30.66R WCI  -4
EMPORIA        SUNNY     15   7  70 NW14      30.65R WCI   0
LAWRENCE       SUNNY     16   9  74 NW17      30.64R WCI   0
MANHATTAN      SUNNY     17   5  59 NW6       30.68R
OLATHE IND     SUNNY     16   7  67 NW14      30.61R WCI   2
OLATHE EXE     SUNNY     15   6  67 NW14      30.60R WCI   0
SALINA         SUNNY     15   4  61 NW14      30.69R WCI   0
TOPEKA BILLARD SUNNY     16   6  65 NW17G24   30.64R WCI   0
TOPEKA FORBES  SUNNY     17   6  62 NW20      30.63R WCI   1
$$




USA.gov is the U.S. government's official web portal to all federal, state and local government web resources and services.